| time (UTC) | temp F | wind direction | speed MPH | gust MPH | rain 1hr in | rain 24hr in | rain mn in | humidity % | barometer mb |
| 20260902160914 | 91 | 188 | 2.0 | 6.0 | 0.00 | 0.00 | 0.00 | 51 | 1016.7 |
| 20260902160410 | 91 | 173 | 4.0 | 6.0 | 0.00 | 0.00 | 0.00 | 50 | 1016.7 |
| 20260902155907 | 91 | 207 | 2.0 | 6.0 | 0.00 | 0.00 | 0.00 | 51 | 1016.6 |
| 20260902155403 | 90 | 126 | 3.0 | 5.0 | 0.00 | 0.00 | 0.00 | 52 | 1016.5 |
| 20260902154857 | 90 | 121 | 3.0 | 8.0 | 0.00 | 0.00 | 0.00 | 51 | 1016.5 |
| 20260902154352 | 91 | 84 | 6.0 | 7.0 | 0.00 | 0.00 | 0.00 | 50 | 1016.5 |
| 20260902153851 | 90 | 59 | 1.0 | 6.0 | 0.00 | 0.00 | 0.00 | 52 | 1016.6 |
| 20260902153351 | 90 | 85 | 4.0 | 7.0 | 0.00 | 0.00 | 0.00 | 51 | 1016.3 |
| 20260902152847 | 90 | 197 | 1.0 | 5.0 | 0.00 | 0.00 | 0.00 | 53 | 1016.5 |
| 20260902152343 | 90 | 165 | 2.0 | 3.0 | 0.00 | 0.00 | 0.00 | 53 | 1016.5 |
| 20260902151838 | 89 | 185 | 2.0 | 5.0 | 0.00 | 0.00 | 0.00 | 54 | 1016.5 |
| 20260902151333 | 89 | 83 | 3.0 | 4.0 | 0.00 | 0.00 | 0.00 | 55 | 1016.2 |
| 20260902150827 | 88 | 65 | 4.0 | 5.0 | 0.00 | 0.00 | 0.00 | 55 | 1016.2 |
| 20260902150324 | 88 | 202 | 3.0 | 5.0 | 0.00 | 0.00 | 0.00 | 56 | 1016.3 |
| 20260902145823 | 89 | 216 | 2.0 | 4.0 | 0.00 | 0.00 | 0.00 | 55 | 1016.2 |
| 20260902145319 | 88 | 184 | 1.0 | 5.0 | 0.00 | 0.00 | 0.00 | 55 | 1016.3 |
| 20260902144814 | 87 | 158 | 5.0 | 5.0 | 0.00 | 0.00 | 0.00 | 57 | 1016.5 |
| 20260902144310 | 87 | 58 | 4.0 | 7.0 | 0.00 | 0.00 | 0.00 | 58 | 1016.1 |
| 20260902143804 | 87 | 115 | 1.0 | 6.0 | 0.00 | 0.00 | 0.00 | 58 | 1016.3 |
| 20260902143259 | 86 | 174 | 1.0 | 6.0 | 0.00 | 0.00 | 0.00 | 58 | 1016.3 |
| 20260902142755 | 87 | 55 | 2.0 | 5.0 | 0.00 | 0.00 | 0.00 | 58 | 1016.5 |
| 20260902142245 | 86 | 85 | 6.0 | 7.0 | 0.00 | 0.00 | 0.00 | 59 | 1016.3 |
| 20260902141745 | 86 | 116 | 2.0 | 5.0 | 0.00 | 0.00 | 0.00 | 59 | 1016.3 |
| 20260902141240 | 86 | 154 | 4.0 | 5.0 | 0.00 | 0.00 | 0.00 | 60 | 1016.3 |
| 20260902140735 | 86 | 118 | 4.0 | 7.0 | 0.00 | 0.00 | 0.00 | 59 | 1016.2 |
| 20260902140230 | 86 | 83 | 3.0 | 8.0 | 0.00 | 0.00 | 0.00 | 60 | 1016.2 |
| 20260902135729 | 86 | 84 | 0.0 | 5.0 | 0.00 | 0.00 | 0.00 | 60 | 1016.1 |
| 20260902135225 | 86 | 84 | 5.0 | 6.0 | 0.00 | 0.00 | 0.00 | 59 | 1016.3 |
| 20260902134724 | 86 | 158 | 3.0 | 6.0 | 0.00 | 0.00 | 0.00 | 59 | 1016.2 |
| 20260902134220 | 86 | 248 | 2.0 | 3.0 | 0.00 | 0.00 | 0.00 | 60 | 1016.2 |
| 20260902133715 | 85 | 94 | 4.0 | 7.0 | 0.00 | 0.00 | 0.00 | 61 | 1016.0 |
| 20260902133214 | 85 | 94 | 5.0 | 6.0 | 0.00 | 0.00 | 0.00 | 61 | 1016.2 |
| 20260902132710 | 85 | 161 | 1.0 | 3.0 | 0.00 | 0.00 | 0.00 | 60 | 1016.1 |
| 20260902132205 | 84 | 71 | 3.0 | 3.0 | 0.00 | 0.00 | 0.00 | 62 | 1016.1 |
| 20260902131701 | 83 | 78 | 3.0 | 4.0 | 0.00 | 0.00 | 0.00 | 64 | 1016.1 |
| 20260902131156 | 83 | 114 | 3.0 | 5.0 | 0.00 | 0.00 | 0.00 | 64 | 1016.1 |
| 20260902130652 | 83 | 113 | 3.0 | 4.0 | 0.00 | 0.00 | 0.00 | 64 | 1015.9 |
| 20260902130147 | 83 | 98 | 3.0 | 5.0 | 0.00 | 0.00 | 0.00 | 64 | 1015.9 |
| 20260902125643 | 83 | 66 | 1.0 | 3.0 | 0.00 | 0.00 | 0.00 | 65 | 1015.8 |
| 20260902125138 | 82 | 33 | 0.0 | 3.0 | 0.00 | 0.00 | 0.00 | 66 | 1015.8 |
| 20260902124635 | 81 | 92 | 1.0 | 3.0 | 0.00 | 0.00 | 0.00 | 67 | 1015.6 |
| 20260902124134 | 80 | 106 | 2.0 | 3.0 | 0.00 | 0.00 | 0.00 | 68 | 1015.7 |
| 20260902123630 | 80 | 44 | 1.0 | 4.0 | 0.00 | 0.00 | 0.00 | 69 | 1015.7 |
| 20260902123124 | 80 | 101 | 2.0 | 3.0 | 0.00 | 0.00 | 0.00 | 69 | 1015.6 |
| 20260902122619 | 79 | 76 | 2.0 | 3.0 | 0.00 | 0.00 | 0.00 | 71 | 1015.6 |
| 20260902122114 | 78 | 57 | 0.0 | 2.0 | 0.00 | 0.00 | 0.00 | 72 | 1015.6 |
| 20260902121609 | 78 | 110 | 2.0 | 2.0 | 0.00 | 0.00 | 0.00 | 73 | 1015.5 |
| 20260902121104 | 78 | 269 | 0.0 | 2.0 | 0.00 | 0.00 | 0.00 | 73 | 1015.3 |
| 20260902120600 | 78 | 37 | 0.0 | 2.0 | 0.00 | 0.00 | 0.00 | 73 | 1015.6 |
| 20260902120056 | 78 | 109 | 0.0 | 2.0 | 0.00 | 0.00 | 0.00 | 73 | 1015.5 |
| 20260902115551 | 78 | 89 | 0.0 | 2.0 | 0.00 | 0.00 | 0.00 | 73 | 1015.3 |
| 20260902115047 | 78 | 138 | 1.0 | 2.0 | 0.00 | 0.00 | 0.00 | 72 | 1015.4 |
| 20260902114543 | 78 | 129 | 2.0 | 2.0 | 0.00 | 0.00 | 0.00 | 73 | 1015.3 |
| 20260902114042 | 78 | 195 | 1.0 | 3.0 | 0.00 | 0.00 | 0.00 | 73 | 1015.3 |
| 20260902113538 | 78 | 147 | 0.0 | 1.0 | 0.00 | 0.00 | 0.00 | 74 | 1015.5 |
| 20260902113033 | 78 | 89 | 0.0 | 2.0 | 0.00 | 0.00 | 0.00 | 74 | 1015.5 |
| 20260902112528 | 78 | 89 | 0.0 | 1.0 | 0.00 | 0.00 | 0.00 | 73 | 1015.4 |
| 20260902112025 | 78 | 193 | 0.0 | 1.0 | 0.00 | 0.00 | 0.00 | 73 | 1015.6 |
| 20260902111521 | 79 | 157 | 0.0 | 1.0 | 0.00 | 0.00 | 0.00 | 72 | 1015.4 |
| 20260902111016 | 79 | 88 | 1.0 | 2.0 | 0.00 | 0.00 | 0.00 | 72 | 1015.6 |
| 20260902110512 | 79 | 338 | 0.0 | 3.0 | 0.00 | 0.00 | 0.00 | 71 | 1015.5 |
| 20260902110008 | 79 | 122 | 0.0 | 2.0 | 0.00 | 0.00 | 0.00 | 71 | 1015.5 |
| 20260902105503 | 79 | 223 | 2.0 | 3.0 | 0.00 | 0.00 | 0.00 | 71 | 1015.5 |
| 20260902104957 | 79 | 124 | 2.0 | 3.0 | 0.00 | 0.00 | 0.00 | 71 | 1015.5 |
| 20260902104453 | 79 | 127 | 0.0 | 2.0 | 0.00 | 0.00 | 0.00 | 71 | 1015.3 |
| 20260902103953 | 79 | 117 | 2.0 | 2.0 | 0.00 | 0.00 | 0.00 | 71 | 1015.4 |
| 20260902103448 | 79 | 140 | 0.0 | 2.0 | 0.00 | 0.00 | 0.00 | 71 | 1015.4 |
| 20260902102943 | 79 | 81 | 0.0 | 1.0 | 0.00 | 0.00 | 0.00 | 70 | 1015.5 |
| 20260902102440 | 79 | 200 | 0.0 | 2.0 | 0.00 | 0.00 | 0.00 | 70 | 1015.3 |
| 20260902101936 | 80 | 99 | 0.0 | 2.0 | 0.00 | 0.00 | 0.00 | 69 | 1015.4 |
| 20260902101435 | 80 | 170 | 1.0 | 2.0 | 0.00 | 0.00 | 0.00 | 69 | 1015.4 |
| 20260902100929 | 80 | 72 | 0.0 | 2.0 | 0.00 | 0.00 | 0.00 | 69 | 1015.1 |
| 20260902100424 | 80 | 153 | 0.0 | 2.0 | 0.00 | 0.00 | 0.00 | 69 | 1015.3 |
| 20260902095919 | 80 | 201 | 0.0 | 1.0 | 0.00 | 0.00 | 0.00 | 68 | 1015.3 |
| 20260902095413 | 80 | 203 | 0.0 | 2.0 | 0.00 | 0.00 | 0.00 | 67 | 1015.2 |
| 20260902094912 | 81 | 193 | 1.0 | 2.0 | 0.00 | 0.00 | 0.00 | 67 | 1015.4 |
| 20260902094408 | 81 | 166 | 0.0 | 2.0 | 0.00 | 0.00 | 0.00 | 67 | 1015.2 |
| 20260902093903 | 81 | 106 | 0.0 | 2.0 | 0.00 | 0.00 | 0.00 | 66 | 1015.3 |
| 20260902093358 | 81 | 150 | 0.0 | 2.0 | 0.00 | 0.00 | 0.00 | 66 | 1015.2 |
| 20260902092856 | 81 | 46 | 0.0 | 2.0 | 0.00 | 0.00 | 0.00 | 65 | 1015.4 |
| 20260902092352 | 82 | 171 | 0.0 | 3.0 | 0.00 | 0.00 | 0.00 | 65 | 1015.3 |
| 20260902091847 | 82 | 322 | 0.0 | 2.0 | 0.00 | 0.00 | 0.00 | 65 | 1015.2 |
| 20260902091342 | 82 | 137 | 0.0 | 3.0 | 0.00 | 0.00 | 0.00 | 65 | 1015.3 |
| 20260902090839 | 82 | 102 | 1.0 | 3.0 | 0.00 | 0.00 | 0.00 | 65 | 1015.3 |
| 20260902090338 | 82 | 138 | 0.0 | 5.0 | 0.00 | 0.00 | 0.00 | 65 | 1015.4 |
| 20260902085837 | 82 | 154 | 1.0 | 3.0 | 0.00 | 0.00 | 0.00 | 65 | 1015.3 |
| 20260902085333 | 82 | 160 | 1.0 | 5.0 | 0.00 | 0.00 | 0.00 | 65 | 1015.0 |
| 20260902084828 | 82 | 150 | 2.0 | 2.0 | 0.00 | 0.00 | 0.00 | 65 | 1015.3 |
| 20260902084325 | 82 | 113 | 1.0 | 4.0 | 0.00 | 0.00 | 0.00 | 65 | 1015.4 |
| 20260902083820 | 82 | 205 | 0.0 | 2.0 | 0.00 | 0.00 | 0.00 | 65 | 1015.4 |
| 20260902083319 | 82 | 192 | 2.0 | 4.0 | 0.00 | 0.00 | 0.00 | 64 | 1015.4 |
| 20260902082815 | 82 | 173 | 0.0 | 2.0 | 0.00 | 0.00 | 0.00 | 64 | 1015.2 |
| 20260902082311 | 82 | 141 | 1.0 | 2.0 | 0.00 | 0.00 | 0.00 | 64 | 1015.4 |
| 20260902081807 | 83 | 172 | 2.0 | 2.0 | 0.00 | 0.00 | 0.00 | 64 | 1015.4 |
| 20260902081303 | 83 | 201 | 0.0 | 2.0 | 0.00 | 0.00 | 0.00 | 64 | 1015.5 |
| 20260902080757 | 83 | 180 | 2.0 | 3.0 | 0.00 | 0.00 | 0.00 | 64 | 1015.2 |
| 20260902080254 | 83 | 187 | 2.0 | 3.0 | 0.00 | 0.00 | 0.00 | 64 | 1015.3 |
| 20260902075753 | 83 | 165 | 1.0 | 3.0 | 0.00 | 0.00 | 0.00 | 64 | 1015.5 |
| 20260902075249 | 83 | 191 | 3.0 | 4.0 | 0.00 | 0.00 | 0.00 | 63 | 1015.3 |
| 20260902074744 | 84 | 171 | 0.0 | 5.0 | 0.00 | 0.00 | 0.00 | 63 | 1015.4 |
| 20260902074239 | 84 | 177 | 3.0 | 5.0 | 0.00 | 0.00 | 0.00 | 63 | 1015.5 |
| 20260902073735 | 84 | 177 | 5.0 | 6.0 | 0.00 | 0.00 | 0.00 | 63 | 1015.3 |
| 20260902073230 | 84 | 103 | 2.0 | 4.0 | 0.00 | 0.00 | 0.00 | 62 | 1015.4 |
| 20260902072726 | 84 | 123 | 2.0 | 6.0 | 0.00 | 0.00 | 0.00 | 62 | 1015.5 |
| 20260902072222 | 84 | 271 | 2.0 | 4.0 | 0.00 | 0.00 | 0.00 | 62 | 1015.5 |
| 20260902071718 | 84 | 135 | 3.0 | 5.0 | 0.00 | 0.00 | 0.00 | 62 | 1015.5 |
| 20260902071213 | 84 | 256 | 0.0 | 3.0 | 0.00 | 0.00 | 0.00 | 61 | 1015.4 |
| 20260902070710 | 85 | 192 | 3.0 | 4.0 | 0.00 | 0.00 | 0.00 | 60 | 1015.4 |
| 20260902070209 | 85 | 200 | 2.0 | 4.0 | 0.00 | 0.00 | 0.00 | 60 | 1015.5 |
| 20260902065708 | 85 | 139 | 3.0 | 7.0 | 0.00 | 0.00 | 0.00 | 60 | 1015.5 |
| 20260902065204 | 85 | 346 | 1.0 | 5.0 | 0.00 | 0.00 | 0.00 | 60 | 1015.4 |
| 20260902064659 | 85 | 346 | 1.0 | 3.0 | 0.00 | 0.00 | 0.00 | 59 | 1015.2 |
| 20260902064154 | 85 | 185 | 4.0 | 6.0 | 0.00 | 0.00 | 0.00 | 59 | 1015.3 |
| 20260902063650 | 85 | 244 | 1.0 | 10.0 | 0.00 | 0.00 | 0.00 | 59 | 1015.2 |
| 20260902063150 | 85 | 165 | 4.0 | 8.0 | 0.00 | 0.00 | 0.00 | 59 | 1015.3 |
| 20260902062649 | 86 | 182 | 3.0 | 4.0 | 0.00 | 0.00 | 0.00 | 59 | 1015.3 |
| 20260902062144 | 86 | 171 | 3.0 | 5.0 | 0.00 | 0.00 | 0.00 | 59 | 1015.2 |
| 20260902061643 | 86 | 153 | 1.0 | 9.0 | 0.00 | 0.00 | 0.00 | 58 | 1015.0 |
| 20260902061139 | 86 | 144 | 3.0 | 8.0 | 0.00 | 0.00 | 0.00 | 58 | 1015.2 |
| 20260902060636 | 86 | 151 | 3.0 | 9.0 | 0.00 | 0.00 | 0.00 | 57 | 1015.0 |
| 20260902060132 | 86 | 214 | 4.0 | 7.0 | 0.00 | 0.00 | 0.00 | 57 | 1015.1 |
| 20260902055627 | 87 | 104 | 1.0 | 3.0 | 0.00 | 0.00 | 0.00 | 57 | 1014.9 |
| 20260902055122 | 87 | 80 | 2.0 | 4.0 | 0.00 | 0.00 | 0.00 | 56 | 1014.9 |
| 20260902054617 | 87 | 126 | 1.0 | 6.0 | 0.00 | 0.00 | 0.00 | 55 | 1014.7 |
| 20260902054114 | 87 | 153 | 1.0 | 5.0 | 0.00 | 0.00 | 0.00 | 55 | 1014.8 |
| 20260902053608 | 87 | 152 | 3.0 | 5.0 | 0.00 | 0.00 | 0.00 | 54 | 1014.7 |
| 20260902053103 | 88 | 191 | 3.0 | 7.0 | 0.00 | 0.00 | 0.00 | 54 | 1014.7 |
| 20260902052602 | 88 | 210 | 2.0 | 5.0 | 0.00 | 0.00 | 0.00 | 53 | 1014.7 |
| 20260902052059 | 88 | 146 | 4.0 | 11.0 | 0.00 | 0.00 | 0.00 | 53 | 1014.8 |
| 20260902051558 | 88 | 121 | 2.0 | 5.0 | 0.00 | 0.00 | 0.00 | 52 | 1014.7 |
| 20260902051057 | 88 | 130 | 3.0 | 5.0 | 0.00 | 0.00 | 0.00 | 52 | 1014.6 |
| 20260902050552 | 88 | 108 | 4.0 | 10.0 | 0.00 | 0.00 | 0.00 | 51 | 1014.6 |
| 20260902050047 | 88 | 111 | 3.0 | 7.0 | 0.00 | 0.00 | 0.00 | 51 | 1014.4 |
| 20260902045543 | 88 | 134 | 5.0 | 8.0 | 0.00 | 0.00 | 0.00 | 51 | 1014.7 |
| 20260902045039 | 88 | 100 | 4.0 | 6.0 | 0.00 | 0.00 | 0.00 | 52 | 1014.8 |
| 20260902044533 | 88 | 123 | 3.0 | 5.0 | 0.00 | 0.00 | 0.00 | 52 | 1014.5 |
| 20260902044029 | 88 | 107 | 4.0 | 5.0 | 0.00 | 0.00 | 0.00 | 52 | 1014.5 |
| 20260902043524 | 88 | 98 | 2.0 | 4.0 | 0.00 | 0.00 | 0.00 | 51 | 1014.7 |
| 20260902043019 | 88 | 105 | 2.0 | 3.0 | 0.00 | 0.00 | 0.00 | 51 | 1014.7 |
| 20260902042519 | 88 | 78 | 1.0 | 3.0 | 0.00 | 0.00 | 0.00 | 51 | 1014.7 |
| 20260902042014 | 88 | 130 | 2.0 | 4.0 | 0.00 | 0.00 | 0.00 | 51 | 1014.7 |
| 20260902041513 | 89 | 68 | 1.0 | 3.0 | 0.00 | 0.00 | 0.00 | 50 | 1014.6 |
| 20260902041009 | 89 | 139 | 2.0 | 4.0 | 0.00 | 0.00 | 0.00 | 50 | 1014.5 |
| 20260902040508 | 89 | 128 | 3.0 | 4.0 | 0.00 | 0.00 | 0.00 | 50 | 1014.5 |
| 20260902040008 | 89 | 124 | 3.0 | 3.0 | 0.00 | 0.00 | 0.00 | 50 | 1014.7 |
| 20260902035502 | 89 | 91 | 2.0 | 6.0 | 0.00 | 0.00 | 0.00 | 50 | 1014.5 |
| 20260902034956 | 89 | 82 | 1.0 | 3.0 | 0.00 | 0.00 | 0.00 | 49 | 1014.6 |
| 20260902034450 | 89 | 82 | 2.0 | 3.0 | 0.00 | 0.00 | 0.00 | 49 | 1014.6 |
| 20260902033945 | 89 | 128 | 3.0 | 4.0 | 0.00 | 0.00 | 0.00 | 49 | 1014.6 |
| 20260902033444 | 89 | 100 | 2.0 | 3.0 | 0.00 | 0.00 | 0.00 | 49 | 1014.7 |
| 20260902032943 | 89 | 84 | 2.0 | 4.0 | 0.00 | 0.00 | 0.00 | 49 | 1014.5 |
| 20260902032438 | 89 | 117 | 2.0 | 4.0 | 0.00 | 0.00 | 0.00 | 48 | 1014.5 |
| 20260902031932 | 89 | 102 | 2.0 | 3.0 | 0.00 | 0.00 | 0.00 | 48 | 1014.6 |
| 20260902031422 | 89 | 117 | 2.0 | 3.0 | 0.00 | 0.00 | 0.00 | 48 | 1014.6 |
| 20260902030918 | 89 | 129 | 0.0 | 2.0 | 0.00 | 0.00 | 0.00 | 48 | 1014.5 |
| 20260902030413 | 89 | 98 | 1.0 | 3.0 | 0.00 | 0.00 | 0.00 | 48 | 1014.4 |
| 20260902025911 | 89 | 62 | 0.0 | 3.0 | 0.00 | 0.00 | 0.00 | 47 | 1014.5 |
| 20260902025402 | 89 | 92 | 2.0 | 3.0 | 0.00 | 0.00 | 0.00 | 47 | 1014.2 |
| 20260902024901 | 89 | 114 | 0.0 | 3.0 | 0.00 | 0.00 | 0.00 | 47 | 1014.1 |
| 20260902024352 | 90 | 126 | 1.0 | 2.0 | 0.00 | 0.00 | 0.00 | 47 | 1014.1 |
| 20260902023847 | 90 | 123 | 1.0 | 3.0 | 0.00 | 0.00 | 0.00 | 47 | 1014.0 |
| 20260902023342 | 90 | 139 | 0.0 | 2.0 | 0.00 | 0.00 | 0.00 | 46 | 1013.8 |
| 20260902022841 | 90 | 101 | 2.0 | 2.0 | 0.00 | 0.00 | 0.00 | 46 | 1013.9 |
| 20260902022337 | 91 | 118 | 0.0 | 3.0 | 0.00 | 0.00 | 0.00 | 46 | 1013.7 |
| 20260902021832 | 91 | 118 | 2.0 | 2.0 | 0.00 | 0.00 | 0.00 | 46 | 1013.8 |
| 20260902021327 | 91 | 76 | 0.0 | 3.0 | 0.00 | 0.00 | 0.00 | 46 | 1013.5 |
| 20260902020823 | 91 | 61 | 0.0 | 2.0 | 0.00 | 0.00 | 0.00 | 46 | 1013.6 |
| 20260902020319 | 91 | 128 | 1.0 | 2.0 | 0.00 | 0.00 | 0.00 | 46 | 1013.4 |
| 20260902015814 | 91 | 142 | 0.0 | 2.0 | 0.00 | 0.00 | 0.00 | 45 | 1013.5 |
| 20260902015310 | 91 | 173 | 0.0 | 4.0 | 0.00 | 0.00 | 0.00 | 45 | 1013.3 |
| 20260902014806 | 91 | 62 | 0.0 | 2.0 | 0.00 | 0.00 | 0.00 | 45 | 1013.4 |
| 20260902014302 | 91 | 130 | 0.0 | 2.0 | 0.00 | 0.00 | 0.00 | 44 | 1013.3 |
| 20260902013801 | 92 | 66 | 0.0 | 3.0 | 0.00 | 0.00 | 0.00 | 44 | 1013.1 |
| 20260902013256 | 92 | 134 | 1.0 | 3.0 | 0.00 | 0.00 | 0.00 | 43 | 1013.0 |
| 20260902012751 | 92 | 94 | 2.0 | 3.0 | 0.00 | 0.00 | 0.00 | 43 | 1013.1 |
| 20260902012247 | 93 | 135 | 0.0 | 4.0 | 0.00 | 0.00 | 0.00 | 43 | 1013.1 |
| 20260902011742 | 93 | 107 | 1.0 | 5.0 | 0.00 | 0.00 | 0.00 | 43 | 1013.2 |
| 20260902011242 | 93 | 114 | 2.0 | 4.0 | 0.00 | 0.00 | 0.00 | 42 | 1013.0 |
| 20260902010736 | 93 | 52 | 2.0 | 7.0 | 0.00 | 0.00 | 0.00 | 42 | 1013.0 |
| 20260902010232 | 93 | 79 | 2.0 | 5.0 | 0.00 | 0.00 | 0.00 | 42 | 1012.9 |
| 20260902005730 | 94 | 124 | 3.0 | 5.0 | 0.00 | 0.00 | 0.00 | 41 | 1013.2 |
| 20260902005226 | 94 | 98 | 0.0 | 4.0 | 0.00 | 0.00 | 0.00 | 41 | 1013.0 |
| 20260902004725 | 94 | 96 | 5.0 | 8.0 | 0.00 | 0.00 | 0.00 | 40 | 1013.1 |
| 20260902004221 | 95 | 113 | 1.0 | 6.0 | 0.00 | 0.00 | 0.00 | 40 | 1013.0 |
| 20260902003715 | 95 | 144 | 5.0 | 7.0 | 0.00 | 0.00 | 0.00 | 39 | 1013.1 |
| 20260902003211 | 96 | 89 | 2.0 | 4.0 | 0.00 | 0.00 | 0.00 | 38 | 1013.1 |
| 20260902002707 | 96 | 110 | 0.0 | 3.0 | 0.00 | 0.00 | 0.00 | 37 | 1013.1 |
| 20260902002206 | 97 | 85 | 2.0 | 4.0 | 0.00 | 0.00 | 0.00 | 37 | 1013.4 |
| 20260902001702 | 97 | 286 | 2.0 | 5.0 | 0.00 | 0.00 | 0.00 | 37 | 1013.1 |
| 20260902001201 | 97 | 76 | 2.0 | 6.0 | 0.00 | 0.00 | 0.00 | 36 | 1013.1 |
| 20260902000656 | 98 | 182 | 0.0 | 2.0 | 0.00 | 0.00 | 0.00 | 36 | 1013.3 |
| 20260902000152 | 98 | 103 | 0.0 | 4.0 | 0.00 | 0.00 | 0.00 | 36 | 1013.3 |
| 20260901235646 | 98 | 103 | 5.0 | 5.0 | 0.00 | 0.00 | 0.00 | 35 | 1013.2 |
| 20260901235141 | 98 | 119 | 3.0 | 4.0 | 0.00 | 0.00 | 0.00 | 35 | 1013.2 |
| 20260901234640 | 98 | 73 | 4.0 | 7.0 | 0.00 | 0.00 | 0.00 | 35 | 1013.3 |
| 20260901234136 | 98 | 146 | 1.0 | 6.0 | 0.00 | 0.00 | 0.00 | 35 | 1013.4 |
| 20260901233630 | 98 | 122 | 4.0 | 6.0 | 0.00 | 0.00 | 0.00 | 35 | 1013.3 |
| 20260901233126 | 98 | 76 | 3.0 | 7.0 | 0.00 | 0.00 | 0.00 | 35 | 1013.5 |
| 20260901232626 | 98 | 106 | 5.0 | 7.0 | 0.00 | 0.00 | 0.00 | 35 | 1013.5 |
| 20260901232121 | 99 | 128 | 8.0 | 10.0 | 0.00 | 0.00 | 0.00 | 34 | 1013.5 |
| 20260901231618 | 99 | 165 | 3.0 | 5.0 | 0.00 | 0.00 | 0.00 | 35 | 1013.5 |
| 20260901231114 | 100 | 101 | 4.0 | 5.0 | 0.00 | 0.00 | 0.00 | 34 | 1013.4 |
| 20260901230609 | 99 | 105 | 2.0 | 4.0 | 0.00 | 0.00 | 0.00 | 35 | 1013.5 |
| 20260901230104 | 100 | 131 | 4.0 | 8.0 | 0.00 | 0.00 | 0.00 | 33 | 1013.4 |
| 20260901225559 | 99 | 96 | 4.0 | 6.0 | 0.00 | 0.00 | 0.00 | 35 | 1013.6 |
| 20260901225058 | 99 | 222 | 4.0 | 6.0 | 0.00 | 0.00 | 0.00 | 34 | 1013.7 |
| 20260901224554 | 100 | 79 | 6.0 | 7.0 | 0.00 | 0.00 | 0.00 | 34 | 1013.6 |
| 20260901224050 | 100 | 99 | 5.0 | 8.0 | 0.00 | 0.00 | 0.00 | 33 | 1013.3 |
| 20260901223546 | 101 | 94 | 2.0 | 6.0 | 0.00 | 0.00 | 0.00 | 32 | 1013.4 |
| 20260901223041 | 100 | 193 | 5.0 | 7.0 | 0.00 | 0.00 | 0.00 | 33 | 1013.3 |
| 20260901222537 | 99 | 118 | 3.0 | 7.0 | 0.00 | 0.00 | 0.00 | 35 | 1013.5 |
| 20260901222032 | 99 | 103 | 2.0 | 9.0 | 0.00 | 0.00 | 0.00 | 34 | 1013.6 |
| 20260901221529 | 99 | 106 | 3.0 | 7.0 | 0.00 | 0.00 | 0.00 | 34 | 1013.5 |
| 20260901221023 | 99 | 63 | 6.0 | 6.0 | 0.00 | 0.00 | 0.00 | 34 | 1013.6 |
| 20260901220518 | 98 | 78 | 3.0 | 8.0 | 0.00 | 0.00 | 0.00 | 35 | 1013.7 |
| 20260901220016 | 98 | 85 | 5.0 | 9.0 | 0.00 | 0.00 | 0.00 | 34 | 1013.6 |
| 20260901215514 | 99 | 123 | 5.0 | 8.0 | 0.00 | 0.00 | 0.00 | 34 | 1013.7 |
| 20260901215009 | 100 | 79 | 7.0 | 8.0 | 0.00 | 0.00 | 0.00 | 34 | 1013.7 |
| 20260901214508 | 99 | 133 | 5.0 | 6.0 | 0.00 | 0.00 | 0.00 | 34 | 1013.7 |
| 20260901214002 | 100 | 68 | 3.0 | 7.0 | 0.00 | 0.00 | 0.00 | 34 | 1013.9 |
| 20260901213456 | 100 | 112 | 3.0 | 5.0 | 0.00 | 0.00 | 0.00 | 34 | 1013.8 |
| 20260901212956 | 100 | 187 | 5.0 | 10.0 | 0.00 | 0.00 | 0.00 | 34 | 1014.0 |
| 20260901212451 | 101 | 83 | 2.0 | 11.0 | 0.00 | 0.00 | 0.00 | 34 | 1013.8 |
| 20260901211948 | 101 | 220 | 3.0 | 5.0 | 0.00 | 0.00 | 0.00 | 33 | 1013.8 |
| 20260901211443 | 99 | 176 | 5.0 | 6.0 | 0.00 | 0.00 | 0.00 | 33 | 1013.9 |
| 20260901210939 | 98 | 171 | 2.0 | 5.0 | 0.00 | 0.00 | 0.00 | 35 | 1014.0 |
| 20260901210434 | 100 | 87 | 5.0 | 9.0 | 0.00 | 0.00 | 0.00 | 35 | 1014.1 |
| 20260901205930 | 101 | 138 | 2.0 | 6.0 | 0.00 | 0.00 | 0.00 | 34 | 1014.0 |
| 20260901205425 | 98 | 188 | 3.0 | 6.0 | 0.00 | 0.00 | 0.00 | 36 | 1014.0 |
| 20260901204920 | 97 | 84 | 5.0 | 9.0 | 0.00 | 0.00 | 0.00 | 36 | 1014.3 |
| 20260901204417 | 98 | 103 | 3.0 | 10.0 | 0.00 | 0.00 | 0.00 | 36 | 1014.1 |
| 20260901203915 | 97 | 84 | 2.0 | 6.0 | 0.00 | 0.00 | 0.00 | 38 | 1014.2 |
| 20260901203411 | 96 | 92 | 5.0 | 7.0 | 0.00 | 0.00 | 0.00 | 39 | 1014.3 |
| 20260901202906 | 97 | 62 | 7.0 | 12.0 | 0.00 | 0.00 | 0.00 | 38 | 1014.5 |
| 20260901202400 | 98 | 95 | 6.0 | 6.0 | 0.00 | 0.00 | 0.00 | 38 | 1014.5 |
| 20260901201857 | 97 | 117 | 2.0 | 7.0 | 0.00 | 0.00 | 0.00 | 39 | 1014.6 |
| 20260901201356 | 97 | 82 | 4.0 | 8.0 | 0.00 | 0.00 | 0.00 | 38 | 1014.8 |
| 20260901200850 | 98 | 92 | 6.0 | 11.0 | 0.00 | 0.00 | 0.00 | 38 | 1014.9 |
| 20260901200345 | 99 | 92 | 3.0 | 6.0 | 0.00 | 0.00 | 0.00 | 37 | 1015.0 |
| 20260901195844 | 99 | 108 | 6.0 | 8.0 | 0.00 | 0.00 | 0.00 | 37 | 1014.7 |
| 20260901195337 | 100 | 64 | 5.0 | 9.0 | 0.00 | 0.00 | 0.00 | 37 | 1014.8 |
| 20260901194833 | 98 | 126 | 5.0 | 5.0 | 0.00 | 0.00 | 0.00 | 37 | 1015.0 |
| 20260901194327 | 99 | 67 | 2.0 | 7.0 | 0.00 | 0.00 | 0.00 | 37 | 1014.9 |
| 20260901193824 | 98 | 192 | 2.0 | 2.0 | 0.00 | 0.00 | 0.00 | 38 | 1014.9 |
| 20260901193322 | 96 | 308 | 4.0 | 5.0 | 0.00 | 0.00 | 0.00 | 40 | 1015.0 |
| 20260901192817 | 95 | 206 | 4.0 | 5.0 | 0.00 | 0.00 | 0.00 | 42 | 1015.2 |
| 20260901192313 | 96 | 93 | 8.0 | 9.0 | 0.00 | 0.00 | 0.00 | 41 | 1015.1 |
| 20260901191808 | 98 | 202 | 1.0 | 4.0 | 0.00 | 0.00 | 0.00 | 40 | 1015.2 |
| 20260901191304 | 98 | 124 | 3.0 | 12.0 | 0.00 | 0.00 | 0.00 | 40 | 1015.3 |
| 20260901190759 | 98 | 181 | 3.0 | 7.0 | 0.00 | 0.00 | 0.00 | 41 | 1015.6 |
| 20260901190254 | 98 | 134 | 7.0 | 10.0 | 0.00 | 0.00 | 0.00 | 38 | 1015.4 |
| 20260901185752 | 97 | 140 | 6.0 | 6.0 | 0.00 | 0.00 | 0.00 | 41 | 1015.6 |
| 20260901185251 | 98 | 74 | 5.0 | 6.0 | 0.00 | 0.00 | 0.00 | 39 | 1015.8 |
| 20260901184747 | 97 | 96 | 7.0 | 9.0 | 0.00 | 0.00 | 0.00 | 40 | 1015.7 |
| 20260901184242 | 95 | 112 | 3.0 | 8.0 | 0.00 | 0.00 | 0.00 | 43 | 1016.0 |
| 20260901183738 | 95 | 59 | 5.0 | 7.0 | 0.00 | 0.00 | 0.00 | 43 | 1016.0 |
| 20260901183237 | 95 | 173 | 0.0 | 5.0 | 0.00 | 0.00 | 0.00 | 43 | 1016.1 |
| 20260901182734 | 96 | 88 | 4.0 | 6.0 | 0.00 | 0.00 | 0.00 | 42 | 1016.2 |
| 20260901182232 | 96 | 75 | 5.0 | 6.0 | 0.00 | 0.00 | 0.00 | 42 | 1016.3 |
| 20260901181727 | 97 | 25 | 2.0 | 5.0 | 0.00 | 0.00 | 0.00 | 41 | 1016.2 |
| 20260901181222 | 96 | 201 | 4.0 | 6.0 | 0.00 | 0.00 | 0.00 | 41 | 1016.5 |
| 20260901180721 | 96 | 193 | 5.0 | 7.0 | 0.00 | 0.00 | 0.00 | 41 | 1016.3 |
| 20260901180220 | 96 | 215 | 2.0 | 7.0 | 0.00 | 0.00 | 0.00 | 41 | 1016.5 |
| 20260901175720 | 96 | 95 | 7.0 | 8.0 | 0.00 | 0.00 | 0.00 | 40 | 1016.6 |
| 20260901175215 | 96 | 123 | 2.0 | 5.0 | 0.00 | 0.00 | 0.00 | 41 | 1016.7 |
| 20260901174710 | 97 | 136 | 2.0 | 9.0 | 0.00 | 0.00 | 0.00 | 39 | 1016.8 |
| 20260901174206 | 96 | 180 | 5.0 | 9.0 | 0.00 | 0.00 | 0.00 | 40 | 1016.8 |
| 20260901173701 | 95 | 119 | 4.0 | 8.0 | 0.00 | 0.00 | 0.00 | 43 | 1016.8 |
| 20260901173156 | 95 | 122 | 6.0 | 15.0 | 0.00 | 0.00 | 0.00 | 44 | 1016.9 |
| 20260901172652 | 96 | 194 | 11.0 | 11.0 | 0.00 | 0.00 | 0.00 | 42 | 1017.0 |
| 20260901172149 | 96 | 192 | 3.0 | 6.0 | 0.00 | 0.00 | 0.00 | 42 | 1017.2 |
| 20260901171644 | 96 | 193 | 5.0 | 6.0 | 0.00 | 0.00 | 0.00 | 42 | 1017.2 |
| 20260901171143 | 95 | 191 | 3.0 | 5.0 | 0.00 | 0.00 | 0.00 | 43 | 1017.2 |
| 20260901170643 | 96 | 215 | 4.0 | 7.0 | 0.00 | 0.00 | 0.00 | 43 | 1017.3 |
| 20260901170137 | 95 | 253 | 0.0 | 8.0 | 0.00 | 0.00 | 0.00 | 43 | 1017.4 |
| 20260901165636 | 95 | 94 | 3.0 | 7.0 | 0.00 | 0.00 | 0.00 | 44 | 1017.5 |
| 20260901165131 | 95 | 110 | 2.0 | 7.0 | 0.00 | 0.00 | 0.00 | 45 | 1017.5 |
| 20260901164627 | 95 | 207 | 3.0 | 7.0 | 0.00 | 0.00 | 0.00 | 45 | 1017.6 |
| 20260901164122 | 94 | 327 | 3.0 | 4.0 | 0.00 | 0.00 | 0.00 | 46 | 1017.6 |
| 20260901163618 | 94 | 276 | 3.0 | 9.0 | 0.00 | 0.00 | 0.00 | 45 | 1017.6 |
| 20260901163116 | 94 | 120 | 3.0 | 7.0 | 0.00 | 0.00 | 0.00 | 45 | 1017.5 |
| 20260901162612 | 94 | 164 | 5.0 | 8.0 | 0.00 | 0.00 | 0.00 | 45 | 1017.6 |
| 20260901162111 | 93 | 206 | 3.0 | 5.0 | 0.00 | 0.00 | 0.00 | 48 | 1017.5 |
| 20260901161611 | 93 | 240 | 5.0 | 10.0 | 0.00 | 0.00 | 0.00 | 47 | 1017.7 |